EW2827 Weather Reports


Display with metric or nautical units.
time (UTC)temp
F
wind
direction
speed
MPH
gust
MPH
rain 1hr
in
rain 24hr
in
rain mn
in
humidity
%
barometer
mb
20260505054822 74 188 1.0 3.0 0.00 0.00 0.00 49 1000.8
20260505053822 74 210 1.0 2.0 0.00 0.00 0.00 47 1000.8
20260505053322 74 292 2.0 7.0 0.00 0.00 0.00 47 1000.8
20260505051819 74 273 1.0 6.0 0.00 0.00 0.00 48 1000.8
20260505050816 73 275 2.0 6.0 0.00 0.00 0.00 48 1000.9
20260505040819 73 187 2.0 11.0 0.00 0.00 0.00 50 1000.3
20260505035817 72 293 2.0 10.0 0.00 0.00 0.00 49 1000.3
20260505034822 71 337 3.0 14.0 0.00 0.00 0.00 50 1000.3
20260505033811 71 178 3.0 9.0 0.00 0.00 0.00 50 1000.4
20260505033316 71 159 3.0 11.0 0.00 0.00 0.00 51 1000.5
20260505031810 71 213 1.0 9.0 0.00 0.00 0.00 53 1000.6
20260505030811 70 272 2.0 7.0 0.00 0.00 0.00 53 1000.8
20260505025810 69 260 3.0 10.0 0.00 0.00 0.00 55 1000.7
20260505024810 69 252 2.0 12.0 0.00 0.00 0.00 56 1000.8
20260505023812 69 192 3.0 12.0 0.00 0.00 0.00 56 1001.0
20260505022810 68 259 3.0 11.0 0.00 0.00 0.00 57 1001.0
20260505021815 68 235 2.0 9.0 0.00 0.01 0.00 58 1001.1
20260505020818 68 210 3.0 9.0 0.00 0.01 0.00 59 1001.2
20260505015813 68 202 3.0 14.0 0.00 0.02 0.00 58 1001.2
20260505014814 67 234 3.0 10.0 0.00 0.02 0.00 60 1001.4
20260505013810 67 211 3.0 12.0 0.00 0.02 0.00 61 1001.6
20260505012813 67 280 3.0 16.0 0.00 0.02 0.00 61 1001.8
20260505011812 67 195 2.0 15.0 0.00 0.02 0.00 61 1001.7
20260505010819 67 252 3.0 12.0 0.00 0.02 0.00 61 1001.8
20260505005813 66 182 4.0 12.0 0.00 0.02 0.00 62 1001.9
20260505005312 65 305 3.0 11.0 0.00 0.02 0.00 63 1002.2
20260505003814 65 271 2.0 10.0 0.00 0.02 0.00 65 1002.3
20260505002819 64 180 3.0 14.0 0.00 0.02 0.00 64 1002.4
20260505001816 64 302 5.0 18.0 0.00 0.02 0.00 64 1002.3
20260505000814 63 244 4.0 17.0 0.00 0.02 0.00 65 1002.3
20260504235811 63 251 4.0 13.0 0.00 0.02 0.00 66 1002.4
20260504234812 62 250 4.0 10.0 0.00 0.02 0.00 67 1002.5
20260504233813 62 279 4.0 14.0 0.00 0.02 0.00 67 1002.7
20260504232802 61 269 2.0 8.0 0.00 0.02 0.00 69 1002.7
20260504231802 61 284 2.0 8.0 0.00 0.02 0.00 69 1002.8
20260504230803 61 281 2.0 8.0 0.00 0.02 0.00 69 1002.7
20260504225802 60 341 4.0 10.0 0.00 0.02 0.00 69 1002.5
20260504224803 60 294 3.0 10.0 0.00 0.02 0.00 70 1002.4
20260504223802 59 290 3.0 11.0 0.00 0.02 0.00 71 1002.4
20260504222802 59 292 2.0 9.0 0.00 0.02 0.00 73 1002.4
20260504221802 58 280 2.0 8.0 0.00 0.02 0.00 75 1002.5
20260504220800 58 290 3.0 8.0 0.00 0.02 0.00 76 1002.5
20260504215756 58 313 4.0 9.0 0.00 0.02 0.00 76 1002.3
20260504214755 58 298 4.0 8.0 0.00 0.02 0.00 76 1002.1
20260504213755 57 311 4.0 9.0 0.00 0.02 0.00 75 1002.0
20260504213257 57 313 3.0 8.0 0.00 0.02 0.00 77 1001.9
20260504211753 56 293 2.0 7.0 0.00 0.02 0.00 78 1001.8
20260504211255 56 290 1.0 6.0 0.00 0.02 0.00 82 1001.8
20260504205755 56 343 2.0 4.0 0.00 0.02 0.00 83 1001.6
20260504204754 55 301 2.0 8.0 0.00 0.02 0.00 85 1001.4
20260504203755 55 307 1.0 6.0 0.00 0.02 0.00 88 1001.2
20260504202753 55 207 0.0 2.0 0.00 0.02 0.00 89 1001.0
20260504201755 55 195 0.0 2.0 0.00 0.02 0.00 89 1000.9
20260504201254 56 248 0.0 4.0 0.00 0.02 0.00 90 1000.7
20260504195753 56 222 1.0 7.0 0.00 0.02 0.00 90 1000.6
20260504194807 56 198 0.0 3.0 0.00 0.02 0.00 90 1000.3
20260504194756 56 204 0.0 3.0 0.00 0.02 0.00 90 1000.5
20260504192754 57 198 0.0 4.0 0.00 0.02 0.00 90 1000.2
20260504191751 57 289 0.0 3.0 0.00 0.02 0.00 89 1000.2
20260504190804 57 225 0.0 3.0 0.00 0.02 0.00 88 1000.1
20260504190751 57 215 0.0 6.0 0.00 0.02 0.00 89 1000.2
20260504185252 57 211 0.0 4.0 0.00 0.02 0.00 88 1000.0
20260504183751 57 279 0.0 4.0 0.00 0.02 0.00 88 1000.0
20260504182753 57 207 0.0 2.0 0.00 0.02 0.00 88 999.7
20260504181753 58 294 0.0 3.0 0.00 0.02 0.00 88 999.7
20260504180750 58 204 0.0 2.0 0.00 0.02 0.00 87 999.7
20260504175752 58 204 0.0 2.0 0.00 0.02 0.00 86 999.6
20260504174746 59 204 0.0 2.0 0.00 0.02 0.00 86 999.6
20260504174300 59 204 0.0 2.0 0.00 0.02 0.00 85 999.6
20260504173746 59 204 0.0 1.0 0.00 0.02 0.00 85 999.6
20260504171746 60 204 0.0 1.0 0.00 0.02 0.00 85 999.7
20260504170745 60 204 0.0 2.0 0.00 0.02 0.00 84 999.8
20260504170248 60 204 0.0 3.0 0.00 0.02 0.00 84 999.8
20260504150241 62 213 0.0 3.0 0.00 0.02 0.00 88 999.8
20260504141236 63 214 1.0 8.0 0.00 0.02 0.00 88 999.6
20260504130734 64 235 0.0 3.0 0.00 0.02 0.02 86 999.4
20260504081722 65 0 0.0 2.0 0.00 0.02 0.02 88 998.4
20260504080724 65 148 1.0 3.0 0.00 0.02 0.02 88 998.3